Other Public Products
Issued by NWS Grand Forks, ND

Home | Current Version | Previous Version | Graphics & Text | Print | Product List | Glossary On
Versions: 1 2 3 4 5 6 7 8 9 10 11 12 13 14 15 16 17 18 19 20 21 22 23 24 25 26 27 28 29 30 31 32 33 34 35 36 37 38 39 40 41 42 43 44 45 46 47 48 49 50
000
FPUS83 KFGF 290210
OPUFGF
PRAIRIE TO PINES WEATHER ROUNDUP
NATIONAL WEATHER SERVICE EASTERN NORTH DAKOTA/GRAND FORKS ND
900 PM CDT SAT MAR 28 2015

 **SATELLITE DATA USED TO AUGMENT SKY COVER AT AUTOMATED STATIONS**
 *****  WEATHER ACROSS EASTERN NORTH DAKOTA  *****

CITY           SKY/WX    TMP DP  RH WIND       PRES   REMARKS
GRAND FORKS    MOCLDY    47  31  53 S24G35    29.60F
GRAND FORKS AF PTCLDY    47  31  54 S24G33    29.57F
GRAND CITY NWS   N/A     45 N/A N/A S16         N/A
BUXTON         NOT AVBL
DEVILS LAKE    CLOUDY    48  36  61 S20G25    29.53R
FARGO          LGT RAIN  46  30  53 SE24G38   29.69F
WAHPETON ARPT  PTCLDY    41  30  65 SE21      29.75F
$$

 *****  WEATHER ACROSS CENTRAL AND WESTERN NORTH DAKOTA  *****

CITY           SKY/WX    TMP DP  RH WIND       PRES   REMARKS
JAMESTOWN      MOCLDY    48  33  56 S21G30    29.55F
BISMARCK       LGT RAIN  58  50  75 NW8       29.60F
MINOT          CLOUDY    58  47  66 W13       29.47R
MINOT AFB      CLOUDY    51  51  99 W12       29.45R
GARRISON         N/A     55  49  80 W12       29.51R
WILLISTON      CLOUDY    53  44  71 W20       29.59R
DICKINSON      CLOUDY    49  42  77 W25G36    29.64R
HETTINGER      CLOUDY    52  44  74 NW26G40   29.67R
$$

 *****  OTHER OBSERVATIONS NORTHEAST NORTH DAKOTA  *****

CITY           SKY/WX    TMP DP  RH WIND       PRES   REMARKS
WALHALLA         N/A     45  36  70 S9        29.56R
LANGDON        NOT AVBL
CAVALIER       FAIR      45  34  65 S17G26    29.55F
GRAFTON        NOT AVBL
CANDO          NOT AVBL
FORT TOTTEN      N/A     49  35  58 S18       29.95
ROLLA          LGT RAIN  45  41  87 S8        29.52S
RUGBY            N/A     48  39  71 S17       29.46R
 ***** THE ABOVE OBSERVATIONS ARE NON NWS ARE NOT QUALITY
        CONTROLLED AND MAY MIS-REPORT RAIN FOR SNOW...
$$

 *****  OTHER OBSERVATIONS SOUTHEAST NORTH DAKOTA *****

CITY           SKY/WX    TMP DP  RH WIND       PRES   REMARKS
COOPERSTOWN    NOT AVBL
VALLEY CITY    FAIR      46  32  57 S20G29    29.60F
OAKES            N/A     46  34  61 SE16      29.64F
GWINNER        CLEAR     45  32  61 S15         N/A
SHEYENNE NWR     N/A     46  31  55 S15       29.95
BUFFALO        NOT AVBL
WYNDMERE         N/A     46  30  53 SE15        N/A
 ***** THE ABOVE OBSERVATIONS ARE NON NWS ARE NOT QUALITY
       CONTROLLED AND MAY MIS-REPORT RAIN FOR SNOW...
$$

  *****  WEATHER ACROSS NORTHERN MINNESOTA  *****

CITY           SKY/WX    TMP DP  RH WIND       PRES   REMARKS
FLAG ISLAND    CLOUDY    34  28  80 S16       29.66F WCI  23
WARROAD        CLOUDY    39  28  65 S15G24    29.67F
ROSEAU         MOCLDY    41  30  65 S17G33    29.65F
HALLOCK        CLOUDY    43  30  61 S21       29.59F
THF RVR FALLS  PTCLDY    39  28  65 S20G28    29.67F
HALSTAD        NOT AVBL
FOSSTON        PTCLDY    37  27  65 S21G29    29.72F
BAUDETTE       CLOUDY    40  24  53 S15G23    29.71F
WASKISH        CLOUDY    39  27  60 S9G22     29.76F
CROOKSTON      PTCLDY    43  30  61 S29G35    29.66F
$$
  *****  WEATHER ACROSS CENTRAL AND WEST MINNESOTA  *****

CITY           SKY/WX    TMP DP  RH WIND       PRES   REMARKS
BEMIDJI        MOCLDY    37  26  65 S14G21    29.78F
PARK RAPIDS    PTCLDY    40  26  57 S20       29.81F
WADENA         PTCLDY    37  27  65 S16       29.83F
DETROIT LAKES  MOCLDY    39  30  70 S21G29    29.77F
MOORHEAD       FAIR      45  32  61 S24G36    29.72F
FERGUS FALLS   CLEAR     39  27  60 SE20G25   29.80F
ELBOW LAKE     FAIR      39  30  71 SE22G28   29.80F
MORRIS MN      CLEAR     39  30  70 SE16      29.82F
STAPLES        CLOUDY    37  25  60 S12G18    29.86F
WHEATON        CLEAR     39  28  65 SE15      29.79F
$$
  *****  WEATHER ELSEWHERE ACROSS MINNESOTA  *****

CITY           SKY/WX    TMP DP  RH WIND       PRES   REMARKS
DULUTH         PTCLDY    36  15  42 S17       29.94F
INTRNTL FALLS  CLOUDY    40  19  43 S12G23    29.77F
ELY            CLEAR     36  12  38 S10       29.89S
CLOQUET        PTCLDY    36  12  38 S10       29.94F
BRAINERD       MOCLDY    36  22  56 S13       29.90F
HIBBING        PTCLDY    36  16  44 S6        29.89S
ALEXANDRIA     PTCLDY    38  27  64 S20       29.85F
SAINT CLOUD    MOCLDY    36  24  62 SE18      29.94F
MINNEAPOLIS    PTCLDY    35  21  56 SE13      30.04F
$$

  *****  WEATHER ACROSS SOUTH DAKOTA  *****

CITY           SKY/WX    TMP DP  RH WIND       PRES   REMARKS
SIOUX FALLS    CLEAR     47  28  47 S20G25    29.87F
BROOKINGS      NOT AVBL
WATERTOWN      CLEAR     44  28  53 S18       29.76F
HURON          CLEAR     50  32  50 S24G35    29.71F
SISSETON         N/A     44  31  60 S18       29.72F
ABERDEEN       PTCLDY    50  31  48 S24G33    29.64F
MITCHELL       CLEAR     50  33  52 SE24      29.76F
PIERRE         MOCLDY    58  35  42 SE22      29.53F
MOBRIDGE       CLOUDY    55  35  47 SE21      29.49F
RAPID CITY     MOCLDY    65  40  39 NW48G58   29.67R
$$

  *****  SOME WEATHER IN NEARBY STATES *****

CITY           SKY/WX    TMP DP  RH WIND       PRES   REMARKS
GLASGOW MT     LGT RAIN  47  40  76 W26G35    29.72R
GREAT FALLS MT CLOUDY    49  26  41 W18G26    30.05R
CHEYENNE WY    PTCLDY    61  27  27 W30G38    29.93F
SCOTTSBLUFF NE MOCLDY    74  24  15 W17G25    29.76R
OMAHA NE       CLEAR     47  32  56 SE20      30.01F
DES MOINES IA  CLEAR     42  21  43 S9        30.12S
DAVENPORT IA   CLEAR     31  13  47 S9        30.24S WCI  23
CHICAGO IL     CLEAR     27  10  49 SE9       30.28R WCI  18
EAU CLAIRE WI  CLEAR     34  12  40 S10       30.11S
LA CROSSE WI   CLEAR     35  16  45 SE9       30.15S
$$

  *****  SOME NATIONAL WEATHER *****

CITY           SKY/WX    TMP DP  RH WIND       PRES   REMARKS
LA GUARDIA NY  CLOUDY    31  19  61 NW15      30.07R WCI  20
RALEIGH NC     FAIR      36  10  34 N5        30.22R
ATLANTA GA     PTCLDY    43  16  33 NW8       30.21R
NEW ORLEANS LA CLEAR     59  46  62 SE7       30.21R
OKLAHOMA CITY  CLEAR     63  45  51 SE10      29.99R
ALBUQUERQUE NM CLEAR     73  10   9 W10       30.08S
SALT LAKE CITY PTCLDY    64  36  35 NW12      30.14R
LOS ANGELES CA PTCLDY    62  58  86 W9        30.02R
BOISE ID       CLEAR     56  26  31 N12       30.27S
SEATTLE WA     CLOUDY    55  43  63 SW7       30.34S
$$

*** WEATHER ACROSS MANITOBA...SASKATCHEWAN AND ONTARIO ***
                ***ONTARIO***

CITY           SKY/WX    TMP DP  RH WIND       PRES   REMARKS
GERALDTON      PTCLDY    27  14  59 S14G28    29.89F WCI  15
THUNDER BAY    PTCLDY    30  18  59 SW9       29.97F WCI  22
SIOUX LOOKOUT  MOCLDY    36  12  38 S10       29.71F
TORONTO        CLEAR     23   5  46 NW9       30.24R WCI  13
BIG TROUT LK   CLOUDY    36  25  64 SW12G22   29.56F
PICKLE LAKE    CLOUDY    36  12  38 S14G21    29.66F
DRYDEN         CLOUDY    37  18  44 S14G21    29.68F
KENORA         CLOUDY    39  25  56 S18G30    29.64F
$$
                *** MANITOBA***

CITY           SKY/WX    TMP DP  RH WIND       PRES   REMARKS
BRANDON        MOCLDY    41  37  87 SE6       29.42F
DAUPHIN        LGT RAIN  39  34  81 NW6       29.46R
ISLAND LAKE    LGT SNOW  32  32 100 VRB2      29.50F
PILOT MOUND      N/A     43  37  81 S20         N/A
THE PAS        CLOUDY    36  32  87 NW13      29.55R
THOMPSON       SNOWSHWR  32  30  93 W3        29.50R
WINNIPEG       MOCLDY    43  32  65 S25G35    29.54F
LYNN LAKE      CLEAR     37  27  65 NW9       29.52R
CHURCHILL      CLOUDY    30  27  86 NW14      29.43R WCI  20
GILLAM         CLOUDY    32  30  93 W7        29.47R
$$
                ***SASKATCHEWAN***

CITY           SKY/WX    TMP DP  RH WIND       PRES   REMARKS
ESTEVAN        LGT RAIN  48  46  93 NW10      29.52R
KINDERSLEY     NOT AVBL
LLOYDMINSTER   PTCLDY    39  34  81 W10       29.82R
PRINCE ALBERT  MOCLDY    37  34  87 NW6       29.69R
REGINA         NOT AVBL


USA.gov is the U.S. government's official web portal to all federal, state and local government web resources and services.